Logan, UT

6:58 AM MST on December 12, 2019 (GMT -0700)
Logan-Cache

Weather History for KLGU - October, 2019

Change the Weather History Date:

Tuesday, October 1, 2019

  Actual Average Record
Temperature  
Mean Temperature 44 °F -  
Max Temperature 57 °F 71 °F 88 °F (2010)
Min Temperature 30 °F 38 °F 25 °F (1985)
Degree Days  
Heating Degree Days 22    
Moisture  
Dew Point 31 °F    
Average Humidity 67    
Maximum Humidity 88    
Minimum Humidity 33    
Precipitation  
Precipitation 0.00 in - - ()
Sea Level Pressure  
Sea Level Pressure 29.94 in    
Wind  
Wind Speed 2 mph ()    
Max Wind Speed 10 mph    
Max Gust Speed -    
Visibility 10.0 miles    
Events      
Averages and records for this station are not official NWS values.
T = Trace of Precipitation, MM = Missing Value Source: Averaged Metar Reports

Daily Weather History Graph

Daily Weather History Graph

Search for Another Location

Airport or City:

Astronomy

Oct. 01, 2019 Rise Set
Actual Time 7:24 AM MDT 7:09 PM MDT
Civil Twilight 6:56 AM MDT 7:37 PM MDT
Nautical Twilight 6:24 AM MDT 8:09 PM MDT
Astronomical Twilight 5:51 AM MDT 8:41 PM MDT
Moon 10:47 AM MDT (10/1) 9:21 PM MDT (10/1)
Length of Visible Light 12h 40m
Length of Day
11h 45m
Waxing Crescent, 12% of the Moon is Illuminated
Oct 1
Waxing Crescent
Oct 5
First Quarter
Oct 13
Full
Oct 21
Last Quarter
Oct 27
New

Hourly Weather History & Observations

Time (MDT) Temp. Windchill Dew Point Humidity Pressure Visibility Wind Dir Wind Speed Gust Speed Precip Events Conditions
12:51 AM 37.0 °F 33.3 °F 33.1 °F 86% 29.94 in 10.0 mi SSW 4.6 mph - N/A   Clear
1:51 AM 37.0 °F - 32.0 °F 82% 29.93 in 10.0 mi Calm Calm - N/A   Clear
2:51 AM 36.0 °F 33.3 °F 30.9 °F 82% 29.93 in 10.0 mi ESE 3.5 mph - N/A   Clear
3:51 AM 35.1 °F 31.0 °F 30.0 °F 82% 29.92 in 10.0 mi SSE 4.6 mph - N/A   Clear
4:51 AM 32.0 °F - 28.9 °F 88% 29.94 in 10.0 mi Calm Calm - N/A   Clear
5:51 AM 32.0 °F 27.5 °F 28.0 °F 85% 29.94 in 10.0 mi SE 4.6 mph - N/A   Clear
6:51 AM 30.9 °F 27.5 °F 27.0 °F 85% 29.95 in 10.0 mi North 3.5 mph - N/A   Clear
7:51 AM 30.9 °F - 27.0 °F 85% 29.96 in 10.0 mi Calm Calm - N/A   Clear
8:51 AM 35.1 °F - 30.9 °F 85% 29.97 in 10.0 mi Calm Calm - N/A   Clear
9:51 AM 39.9 °F - 33.1 °F 77% 29.97 in 10.0 mi Calm Calm - N/A   Clear
10:51 AM 42.1 °F - 33.1 °F 70% 29.97 in 10.0 mi Calm Calm - N/A   Clear
11:51 AM 46.0 °F - 34.0 °F 63% 29.95 in 10.0 mi Calm Calm - N/A   Clear
12:51 PM 48.9 °F - 33.1 °F 54% 29.94 in 10.0 mi Calm Calm - N/A   Clear
1:51 PM 52.0 °F - 32.0 °F 47% 29.92 in 10.0 mi Variable 6.9 mph - N/A   Clear
2:51 PM 54.0 °F - 32.0 °F 43% 29.90 in 10.0 mi Variable 3.5 mph - N/A   Clear
3:51 PM 55.9 °F - 28.9 °F 36% 29.89 in 10.0 mi Calm Calm - N/A   Clear
4:51 PM 57.0 °F - 28.9 °F 34% 29.89 in 10.0 mi Calm Calm - N/A   Clear
5:51 PM 57.0 °F - 28.0 °F 33% 29.89 in 10.0 mi Calm Calm - N/A   Clear
6:51 PM 51.1 °F - 34.0 °F 52% 29.92 in 10.0 mi WNW 6.9 mph - N/A   Clear
7:51 PM 45.0 °F 40.1 °F 35.1 °F 68% 29.95 in 10.0 mi North 9.2 mph - N/A   Clear
8:51 PM 45.0 °F 39.7 °F 32.0 °F 60% 29.96 in 10.0 mi NNW 10.4 mph - N/A   Clear
9:51 PM 43.0 °F 40.3 °F 32.0 °F 65% 29.97 in 10.0 mi North 4.6 mph - N/A   Clear
10:51 PM 41.0 °F 35.8 °F 33.1 °F 73% 29.99 in 10.0 mi North 8.1 mph - N/A   Mostly Cloudy
11:51 PM 42.1 °F - 33.1 °F 70% 29.98 in 10.0 mi Calm Calm - N/A   Overcast